#timestamp,LO_Frequency,Hit,StdDev 
1617916895.9,286046998.3,P
1617916915.7,286046998.5,P
1617916935.6,286047000.5,P
1617916955.4,286047000.7,N
1617916975.2,286046998.9,N
1617916995.1,286046998.8,N
1617916996.0,286046998.8,N
1617917015.8,286047001.2,N
1617917035.7,286047000.0,N
1617917055.5,286047001.9,N
1617917075.3,286047004.2,Y
1617917095.2,286047005.9,P
1617917115.0,286047007.2,N
1617917115.9,286047007.2,N
1617917135.7,286047005.2,N
1617917155.6,286047005.8,N
1617917175.4,286047005.1,N
1617917195.3,286047005.3,N
1617917215.1,286047007.5,Y
1617917216.0,286047007.5,P
1617917235.8,286047002.0,N
1617917255.7,286047003.5,N
1617917305.5,286047003.1,E
1617917315.5,286047001.9,N
1617917335.3,286047000.9,P
1617917355.1,286047000.5,N
1617917375.9,286046998.3,N
1617917395.7,286046998.2,N
1617917415.5,286047000.4,N
1617917435.4,286047000.8,N
1617917455.2,286047000.6,N
1617917475.1,286047000.4,N
1617917476.0,286047000.4,N
1617917495.8,286046998.4,N
1617917515.6,286046998.6,N
1617917535.5,286046999.7,N
1617917555.3,286046999.8,N
1617917575.1,286046998.3,N
1617917595.9,286046999.7,N
1617917615.7,286047001.9,N
1617917635.6,286047001.9,N
1617917655.4,286047001.7,N
1617917675.2,286047001.6,N
1617917695.1,286047003.9,Y
1617917696.0,286047003.9,P
1617917715.8,286047002.1,N
1617917735.6,286047001.6,N
1617917755.5,286047003.5,N
1617917775.3,286047003.2,N
1617917795.2,286047003.7,N
1617917815.9,286047005.9,Y
1617917835.7,286047004.0,P
1617917855.6,286047000.0,N
1617917875.4,286046998.5,N
1617917895.3,286046998.6,N
1617917915.1,286046998.6,N
1617917916.0,286046998.6,N
1617917935.8,286046996.7,N
1617917955.7,286046997.7,N
1617917975.5,286046994.9,N
1617917995.3,286046997.6,N
1617918015.2,286046995.1,N
1617918035.0,286046994.2,N
1617918035.9,286046994.2,N
1617918055.8,286046996.1,N
1617918075.6,286046995.0,N
1617918095.4,286046995.7,N
1617918115.3,286046995.5,N
1617918135.1,286046995.4,N
1617918155.8,286046995.9,N
1617918175.7,286046997.9,N
1617918195.5,286046997.2,N
1617918215.4,286046996.7,N
1617918235.2,286046996.6,N
1617918255.0,286046998.3,N
1617918255.9,286046998.3,N
1617918275.8,286046999.3,N
1617918295.6,286046999.0,N
1617918315.5,286046999.4,N
1617918335.3,286047000.8,N
1617918355.1,286047000.1,N
1617918375.9,286047000.8,N
1617918395.7,286046999.8,N
1617918415.5,286047000.4,N
1617918435.4,286046999.9,N
1617918455.2,286047002.3,N
1617918475.1,286047002.3,N
1617918476.0,286047002.3,N
1617918495.8,286046999.8,N
1617918515.6,286047002.2,N
1617918535.5,286047011.9,Y
1617918555.3,286047005.3,P
1617918575.1,286047004.8,N
1617918595.9,286047005.2,N
1617918615.7,286047005.5,N
1617918635.6,286047005.6,N
1617918655.4,286047004.9,N
1617918675.2,286047006.3,N
1617918695.1,286047006.8,N
1617918696.0,286047006.8,N
1617918715.8,286047007.3,Y
1617918735.7,286047002.0,P
1617918755.5,286047001.3,N
1617918775.3,286047003.0,N
1617918795.2,286047003.7,N
1617918815.9,286047003.1,N
1617918835.7,286047005.8,Y
1617918855.6,286047002.3,P
1617918875.4,286047001.6,P
1617918895.3,286047001.9,P
1617918915.1,286047003.7,Y
1617918916.0,286047003.7,P
1617918935.8,286047002.4,P
1617918955.7,286047001.2,N
1617918975.5,286047000.7,N
1617918995.3,286047000.4,N
1617919015.2,286047002.5,N
1617919035.0,286047002.5,N
1617919035.9,286047002.5,N
1617919055.8,286047002.8,N
1617919075.6,286047002.0,N
1617919095.4,286047002.4,N
1617919115.3,286047001.6,N
1617919135.1,286047002.2,N
1617919155.9,286047003.6,Y
1617919175.7,286047002.0,P
1617919195.5,286047002.1,P
